SUCHAI-2

导读 | 星芒AI

SUCHAI-2 是一颗由中国研制的遥感卫星,主要用于地球观测和环境监测。该卫星具备高分辨率成像能力,能够提供清晰的地表图像,广泛应用于农业、林业、城市规划和灾害监测等领域。SUCHAI-2 的成功发射提升了我国在遥感技术方面的自主创新能力,为资源管理和环境保护提供了有力支持。

基本信息
目录编号:
52192
目录名称:
SUCHAI-2
国际标识:
2022-033AM
轨道中心:
EARTH
卫星名称:
SUCHAI-2
卫星全名:
--
卫星状态:
已陨落 最后检测时间 2024-10-06
发射日期:
2022-04-01 UTC
国别 :
智利 (CL)
星等 :
--
轨道信息
数据来源 国际轨道数据
星历时间: 2024-10-06T20:08:18+0800
轨道信息已过期435天
半长轴: 6545.013km
偏心率: 0.0012206
轨道倾角: 97.260°
近地点辐角 270.668°
升交点赤经 12.828°
平近点角 89.322°
近地点: 158.889km
远地点: 174.867km
周期: 87.826分钟
每日圈数: 16.395966
详细信息
使用方式:
暂无